Location: Lower Kingswood
(51.2667°N, 0.2167°W)
Time: 13:12:50
(UTC+00:00)

NOSS 7 (E) - Pass Details

Date: 26 September 2023
Orbit: 388 x 1707 km, 63.3° (Epoch: 28 November)

Event Time Altitude Azimuth Distance (km) Brightness Sun altitude
Exits shadow 03:54:46 29° 327° (NNW) 791 5.5 -18.8°
Maximum altitude 03:56:13 68° 44° (NE) 463 4.6 -18.6°
Drops below altitude 10° 03:59:46 10° 128° (SE) 1,673 7.7 -18.1°
Sets 04:02:11 0° 131° (SE) 2,707 8.7 -17.7°
